This demonstration page uses our WeatherBlox Daily Observations layout. Learn more.

Left ArrowRight Arrow

Hourly Observations for March 2, 2018

Temp ( °F °C ) Dew Point ( °F °C ) Humidity (%) Winds ( mph kmh ) Pressure ( in mb ) Visibility ( mi km ) Precip ( " mm )
12:53 am 00:53 Clear 34 1.1 17 -8.3 50 50 SE 15 24 30.28 1025 10 16 0.00 0.00
1:53 am 01:53 Clear 33 0.6 18 -7.8 54 54 SE 14 22 30.27 1025 10 16 0.00 0.00
2:53 am 02:53 Clear 33 0.6 18 -7.8 54 54 SSE 9 15 30.26 1025 10 16 0.00 0.00
3:53 am 03:53 Clear 33 0.6 19 -7.2 56 56 SE 10 17 30.23 1024 10 16 0.00 0.00
4:53 am 04:53 Clear 35 1.7 18 -7.8 50 50 SSE 16 26 30.21 1023 10 16 0.00 0.00
5:53 am 05:53 Clear 33 0.6 18 -7.8 54 54 SSE 15 24 30.22 1023 10 16 0.00 0.00
6:53 am 06:53 Clear 32 0 18 -7.8 56 56 SSE 16 26 30.22 1023 10 16 0.00 0.00
7:53 am 07:53 Sunny 32 0 18 -7.8 56 56 SSE 16 26 30.22 1023 10 16 0.00 0.00
8:53 am 08:53 Sunny 37 2.8 17 -8.3 44 44 SSE 17 28 30.24 1024 10 16 0.00 0.00
9:53 am 09:53 Sunny 41 5 17 -8.3 38 38 S 17 28 30.21 1023 10 16 0.00 0.00
10:53 am 10:53 Sunny 47 8.3 16 -8.9 29 29 S 21 33 30.17 1022 10 16 0.00 0.00
11:53 am 11:53 Sunny 50 10 18 -7.8 28 28 S 23 37 30.11 1020 10 16 0.00 0.00
12:53 pm 12:53 Sunny 55 12.8 20 -6.7 25 25 S 21 33 30.08 1019 10 16 0.00 0.00
1:53 pm 13:53 Sunny 59 15 22 -5.6 24 24 S 20 31 30.04 1017 10 16 0.00 0.00
2:53 pm 14:53 Sunny 61 16.1 23 -5 23 23 S 18 30 30.02 1017 10 16 0.00 0.00
3:53 pm 15:53 Sunny 63 17.2 24 -4.4 23 23 S 15 24 30.00 1016 10 16 0.00 0.00
4:53 pm 16:53 Sunny 63 17.2 23 -5 22 22 S 13 20 29.99 1016 10 16 0.00 0.00
5:53 pm 17:53 Sunny 61 16.1 24 -4.4 24 24 SSE 14 22 29.99 1016 10 16 0.00 0.00
6:53 pm 18:53 Clear 56 13.3 24 -4.4 29 29 SSE 10 17 30.01 1016 10 16 0.00 0.00
7:53 pm 19:53 Clear 53 11.7 25 -3.9 34 34 SSE 13 20 30.02 1017 10 16 0.00 0.00
8:53 pm 20:53 Clear 50 10 25 -3.9 38 38 SSE 14 22 30.02 1017 10 16 0.00 0.00
9:53 pm 21:53 Clear 49 9.4 25 -3.9 39 39 SSE 18 30 30.02 1017 10 16 0.00 0.00
10:53 pm 22:53 Clear 48 8.9 25 -3.9 41 41 SSE 16 26 30.01 1016 10 16 0.00 0.00
11:53 pm 23:53 Clear 46 7.8 26 -3.3 46 46 SSE 17 28 30.00 1016 10 16 0.00 0.00

Powered by AerisWeather